Symphonie 2

operational
NORAD ID: 8132 Int'l Des: 1975-077 Owner: CNES/DFVLR Country: F
HEOCIRCULAR

Über Symphonie 2

Beschreibung wird geladen...

Live-Position

3D-Globus wird geladen...

Nächste Überflüge

Höhenverlauf

Altitude vs Time

uPlot chart will show altitude changes over time

Zweizeiliger Elementsatz

1 08132U 75077A 26063.24975566 .00000108 00000-0 00000-0 0 9990
2 08132 4.3090 275.9349 0007187 41.9615 152.2702 0.99968061141407
Epoch: 4. März 2026 • Age: 20 hours

Aktueller Status

Höhe 35840.7 km
Geschwindigkeit 3.07 km/s
Subsatellitenpunkt 2.64°N, 142.42°W
Typ other

Große Konstellationen

Loading constellations...